Mytilene, Greece

7:12 PM EET on February 25, 2017 (GMT +0200)
Odysseas Elytis

Weather History for LGMT - April, 2014

Change the Weather History Date:

Saturday, April 26, 2014

  Actual Average Record
Temperature  
Mean Temperature 65 °F -  
Max Temperature 73 °F 74 °F 81 °F (2013)
Min Temperature 57 °F 58 °F 48 °F (2003)
Growing Degree Days 15 (Base 50)    
Moisture  
Dew Point 58 °F    
Average Humidity 78    
Maximum Humidity 88    
Minimum Humidity 63    
Precipitation  
Precipitation 0.00 in 0.03 in - ()
Sea Level Pressure  
Sea Level Pressure 29.83 in    
Wind  
Wind Speed 1 mph ()    
Max Wind Speed 6 mph    
Max Gust Speed -    
Visibility 6.2 miles    
Events      
Averages and records for this station are not official NWS values.
T = Trace of Precipitation, MM = Missing Value Source: Averaged Metar Reports

Daily Weather History Graph

Daily Weather History Graph

Search for Another Location

Airport or City:

Trip Planner

Search our weather history database for the weather conditions in past years. The results will help you decide how hot, cold, wet, or windy it might be!

Date:

Astronomy

Apr. 26, 2014 Rise Set
Actual Time 6:22 AM EEST 8:01 PM EEST
Civil Twilight 5:53 AM EEST 8:29 PM EEST
Nautical Twilight 5:19 AM EEST 9:04 PM EEST
Astronomical Twilight 4:43 AM EEST 9:40 PM EEST
Moon 4:33 AM EEST (4/26) 5:09 PM EEST (4/26)
Length of Visible Light 14h 36m
Length of Day
13h 39m
Waning Crescent, 10% of the Moon is Illuminated
Apr 26
Waning Crescent
Apr 29
New
May 7
First Quarter
May 14
Full
May 21
Last Quarter

Hourly Weather History & Observations

Time (EEST) Temp. Dew Point Humidity Pressure Visibility Wind Dir Wind Speed Gust Speed Precip Events Conditions
12:00 AM 62 °F 56 °F 77% 29.80 in 6 mi Calm Calm - -   Scattered Clouds
12:50 AM 60.8 °F 57.2 °F 88% 29.80 in 6.2 mi Calm Calm - N/A   Partly Cloudy
1:50 AM 60.8 °F 55.4 °F 82% 29.80 in 6.2 mi Calm Calm - N/A   Partly Cloudy
2:50 AM 59.0 °F 55.4 °F 88% 29.80 in 6.2 mi Calm Calm - N/A   Partly Cloudy
3:00 AM 59 °F 56 °F 85% 29.80 in 6 mi Calm Calm - -   Scattered Clouds
3:50 AM 59.0 °F 55.4 °F 88% 29.80 in 6.2 mi Calm Calm - N/A   Partly Cloudy
4:20 AM 59.0 °F 55.4 °F 88% 29.80 in 6.2 mi Calm Calm - N/A   Partly Cloudy
4:50 AM 59.0 °F 55.4 °F 88% 29.80 in 6.2 mi Calm Calm - N/A   Scattered Clouds
5:20 AM 60.8 °F 57.2 °F 88% 29.80 in 6.2 mi Calm Calm - N/A   Scattered Clouds
5:50 AM 60.8 °F 57.2 °F 88% 29.80 in 6.2 mi Calm Calm - N/A   Partly Cloudy
6:00 AM 60 °F 57 °F 88% 29.81 in 6 mi Calm Calm - -   Scattered Clouds
6:20 AM 60.8 °F 57.2 °F 88% 29.80 in 6.2 mi Calm Calm - N/A   Partly Cloudy
6:50 AM 59.0 °F 55.4 °F 88% 29.80 in 6.2 mi Calm Calm - N/A   Scattered Clouds
7:20 AM 59.0 °F 55.4 °F 88% 29.80 in 6.2 mi Calm Calm - N/A   Mostly Cloudy
8:20 AM 60.8 °F 57.2 °F 88% 29.83 in 6.2 mi Calm Calm - N/A   Mostly Cloudy
8:50 AM 62.6 °F 59.0 °F 88% 29.83 in 6.2 mi Calm Calm - N/A   Mostly Cloudy
9:00 AM 62 °F 59 °F 87% 29.85 in 6 mi Calm Calm - -   Mostly Cloudy
9:20 AM 62.6 °F 59.0 °F 88% 29.83 in 6.2 mi Calm Calm - N/A   Scattered Clouds
9:50 AM 66.2 °F 59.0 °F 78% 29.83 in 6.2 mi Variable 3.5 mph - N/A   Scattered Clouds
10:20 AM 68.0 °F 59.0 °F 73% 29.86 in 6.2 mi Variable 3.5 mph - N/A   Partly Cloudy
10:50 AM 69.8 °F 60.8 °F 73% 29.86 in 6.2 mi Variable 3.5 mph - N/A   Scattered Clouds
11:20 AM 69.8 °F 60.8 °F 73% 29.86 in 6.2 mi Calm Calm - N/A   Mostly Cloudy
11:50 AM 66.2 °F 59.0 °F 78% 29.86 in 6.2 mi Calm Calm - N/A   Mostly Cloudy
12:00 PM 66 °F 59 °F 72% 29.87 in 6 mi Calm Calm - -   Mostly Cloudy
12:20 PM 66.2 °F 59.0 °F 78% 29.86 in 6.2 mi North 4.6 mph - N/A   Mostly Cloudy
12:50 PM 68.0 °F 59.0 °F 73% 29.86 in 6.2 mi Variable 3.5 mph - N/A   Mostly Cloudy
1:20 PM 68.0 °F 59.0 °F 73% 29.86 in 6.2 mi Variable 3.5 mph - N/A   Scattered Clouds
1:50 PM 68.0 °F 59.0 °F 73% 29.86 in 6.2 mi Variable 3.5 mph - N/A   Mostly Cloudy
2:20 PM 68.0 °F 59.0 °F 73% 29.86 in 6.2 mi Variable 2.3 mph - N/A   Mostly Cloudy
2:50 PM 69.8 °F 60.8 °F 73% 29.86 in 6.2 mi ESE 4.6 mph - N/A   Mostly Cloudy
3:00 PM 71 °F 61 °F 63% 29.87 in 6 mi ESE 4.6 mph - -   Partly Cloudy
3:20 PM 71.6 °F 59.0 °F 64% 29.83 in 6.2 mi Variable 3.5 mph - N/A   Mostly Cloudy
3:50 PM 73.4 °F 60.8 °F 65% 29.83 in 6.2 mi Variable 2.3 mph - N/A   Scattered Clouds
4:20 PM 71.6 °F 60.8 °F 69% 29.83 in 6.2 mi NNW 4.6 mph - N/A   Scattered Clouds
4:50 PM 71.6 °F 60.8 °F 69% 29.83 in 6.2 mi NNW 5.8 mph - N/A   Scattered Clouds
5:20 PM 69.8 °F 59.0 °F 68% 29.83 in 6.2 mi NW 5.8 mph - N/A   Scattered Clouds
5:50 PM 68.0 °F 59.0 °F 73% 29.83 in 6.2 mi NNW 5.8 mph - N/A   Scattered Clouds
6:00 PM 69 °F 60 °F 65% 29.85 in 6 mi NNW 5.8 mph - -   Scattered Clouds
6:20 PM 66.2 °F 57.2 °F 73% 29.83 in 6.2 mi North 4.6 mph - N/A   Scattered Clouds
6:50 PM 66.2 °F 57.2 °F 73% 29.83 in 6.2 mi Variable 2.3 mph - N/A   Scattered Clouds
7:20 PM 66.2 °F 57.2 °F 73% 29.83 in 6.2 mi Variable 2.3 mph - N/A   Partly Cloudy
7:50 PM 64.4 °F 57.2 °F 77% 29.83 in 6.2 mi Variable 2.3 mph - N/A   Scattered Clouds
8:20 PM 64.4 °F 57.2 °F 77% 29.83 in 6.2 mi Variable 2.3 mph - N/A   Scattered Clouds
8:50 PM 64.4 °F 57.2 °F 77% 29.83 in 6.2 mi West 4.6 mph - N/A   Scattered Clouds
9:00 PM 64 °F 58 °F 73% 29.85 in 6 mi West 4.6 mph - -   Partly Cloudy
9:20 PM 62.6 °F 55.4 °F 77% 29.83 in 6.2 mi West 4.6 mph - N/A   Scattered Clouds
9:50 PM 60.8 °F 55.4 °F 82% 29.86 in 6.2 mi Variable 2.3 mph - N/A   Scattered Clouds
10:20 PM 60.8 °F 55.4 °F 82% 29.86 in 6.2 mi Calm Calm - N/A   Scattered Clouds
10:50 PM 60.8 °F 55.4 °F 82% 29.86 in 6.2 mi Calm Calm - N/A   Partly Cloudy
11:20 PM 60.8 °F 55.4 °F 82% 29.86 in 6.2 mi Calm Calm - N/A   Partly Cloudy
11:50 PM 62.6 °F 57.2 °F 82% 29.86 in 6.2 mi Calm Calm - N/A   Scattered Clouds